Latest Weather Observations for Tasman Island

IDT60801

Issued at 3:02 am EST Tuesday 28 April 2015 (issued every 30 minutes, with the page automatically refreshed every 10 minutes)

About weather observations | Map of weather stations | Latest weather observations for TAS | Other Formats
Station Details ID: 094155 Name: TASMAN ISLAND Lat: -43.24 Lon: 148.00 Height: 240.0 m
Data from the previous 72 hours. | See also: Recent months at Tasman Island
Date/Time
EST
Temp
°C
App
Temp
°C
Dew
Point
Rel
Hum
%
Delta-T
°C
Wind Press
QNH
hPa
Press
MSL
hPa
Rain
since 9 am
mm
Dir
 
Spd
km/h
Gust
km/h
Spd
kts
Gust
kts
28/03:00am 10.0 4.8 5.6 74 2.0 SW 22 43 12 23 1021.9 1021.9 2.2
28/02:49am 10.0 4.4 5.2 72 2.2 WSW 24 54 13 29 1022.0 1022.0 2.2
28/02:30am 9.7 5.1 6.6 81 1.5 WSW 20 57 11 31 1022.0 1022.0 2.2
28/02:00am 9.7 5.1 6.6 81 1.5 WSW 20 48 11 26 1022.0 1022.0 2.2
28/01:31am 10.1 3.7 5.1 71 2.3 SW 28 63 15 34 1022.0 1022.0 2.2
28/01:30am 10.0 3.9 4.8 70 2.4 SW 26 63 14 34 1022.0 1022.0 2.2
28/01:16am 9.7 3.4 5.7 76 1.9 SW 28 59 15 32 1021.9 1021.9 2.2
28/01:00am 9.7 4.0 6.8 82 1.4 SW 26 54 14 29 1021.9 1021.9 2.2
28/12:49am 9.7 3.7 7.1 84 1.2 SSW 28 57 15 31 1021.9 1021.9 2.2
28/12:30am 9.5 5.3 7.6 88 0.9 WSW 19 50 10 27 1021.9 1021.9 2.2
28/12:00am 9.5 5.1 7.3 86 1.1 WSW 20 52 11 28 1021.9 1021.9 2.2
 
Date/Time
EST
Temp
°C
App
Temp
°C
Dew
Point
Rel
Hum
%
Delta-T
°C
Wind Press
QNH
hPa
Press
MSL
hPa
Rain
since 9 am
mm
Dir
 
Spd
km/h
Gust
km/h
Spd
kts
Gust
kts
27/11:30pm 9.8 4.5 6.7 81 1.5 WSW 24 61 13 33 1021.7 1021.7 2.2
27/11:00pm 9.9 5.4 7.0 82 1.4 WSW 20 50 11 27 1021.7 1021.7 2.2
27/10:30pm 9.9 4.6 6.8 81 1.5 WSW 24 52 13 28 1021.5 1021.5 2.2
27/10:00pm 10.1 5.7 6.6 79 1.7 WSW 19 57 10 31 1021.6 1021.6 2.2
27/09:30pm 9.6 4.3 6.7 82 1.4 SW 24 54 13 29 1021.4 1021.4 2.2
27/09:00pm 9.2 3.8 7.8 91 0.7 SW 26 56 14 30 1021.2 1021.2 2.2
27/08:51pm 9.4 3.7 8.2 92 0.6 SW 28 57 15 31 1021.3 1021.3 2.2
27/08:30pm 10.1 5.3 7.3 83 1.3 SW 22 50 12 27 1021.1 1021.1 2.0
27/08:00pm 9.9 5.2 7.7 86 1.1 SW 22 46 12 25 1021.0 1021.0 2.0
27/07:41pm 9.7 3.5 8.0 89 0.8 SSW 30 59 16 32 1020.9 1020.9 2.0
27/07:30pm 9.9 5.3 8.3 90 0.8 SW 22 54 12 29 1020.8 1020.8 2.0
27/07:00pm 9.7 4.7 8.0 89 0.8 SW 24 54 13 29 1020.5 1020.5 2.0
27/06:30pm 10.0 5.1 6.9 81 1.5 SW 22 61 12 33 1020.1 1020.1 2.0
27/06:00pm 10.1 2.8 7.2 82 1.4 SW 35 61 19 33 1019.8 1019.8 2.0
27/05:39pm 9.6 3.7 7.5 87 1.0 SW 28 59 15 32 1019.5 1019.5 2.0
27/05:30pm 9.6 4.5 7.7 88 0.9 SW 24 54 13 29 1019.4 1019.3 2.0
27/05:03pm 9.8 4.1 8.2 90 0.8 SW 28 52 15 28 1018.9 1018.8 2.0
27/05:00pm 9.9 4.6 8.3 90 0.8 SW 26 52 14 28 1019.0 1018.9 2.0
27/04:30pm 9.6 1.4 6.7 82 1.4 SW 39 67 21 36 1018.9 1018.8 2.0
27/04:13pm 9.3 3.5 7.9 91 0.7 SW 28 52 15 28 1018.6 1018.6 2.0
27/04:00pm 9.6 4.8 8.7 94 0.4 SW 24 46 13 25 1018.5 1018.5 2.0
27/03:39pm 9.7 4.1 8.9 95 0.4 SSW 28 54 15 29 1018.6 1018.6 2.0
27/03:30pm 9.3 5.1 8.4 94 0.4 SW 20 50 11 27 1018.4 1018.4 2.0
27/03:00pm 9.4 1.2 8.0 91 0.7 SW 41 61 22 33 1018.2 1018.2 1.8
27/02:36pm 9.2 3.6 8.6 96 0.3 SW 28 57 15 31 1017.8 1017.8 1.8
27/02:30pm 9.7 5.1 9.6 99 0.1 SW 24 52 13 28 1017.8 1017.8 1.6
27/02:00pm 9.1 4.7 8.8 98 0.1 SW 22 44 12 24 1017.5 1017.5 1.6
27/01:30pm 9.7 5.5 9.6 99 0.1 WSW 22 50 12 27 1017.4 1017.4 1.2
27/01:00pm 9.2 5.0 8.3 94 0.4 WSW 20 61 11 33 1017.4 1017.4 0.4
27/12:30pm 9.7 5.2 8.5 92 0.6 WSW 22 52 12 28 1017.5 1017.5 0.4
27/12:00pm 9.6 5.5 8.7 94 0.4 WSW 20 46 11 25 1017.6 1017.6 0.4
27/11:30am 8.9 4.3 8.3 96 0.3 WSW 22 50 12 27 1017.7 1017.7 0.4
27/11:05am 8.3 2.4 7.4 94 0.4 SW 28 57 15 31 1017.4 1017.4 0.4
27/11:00am 8.4 3.6 7.2 92 0.6 SW 22 46 12 25 1017.5 1017.5 0.2
27/10:44am 9.1 3.2 7.7 91 0.7 SW 28 56 15 30 1017.3 1017.3 0.2
27/10:30am 8.8 3.4 7.9 94 0.4 SW 26 54 14 29 1017.2 1017.2 0.2
27/10:21am 8.5 2.6 7.7 95 0.4 SW 28 52 15 28 1017.1 1017.1 0.2
27/10:00am 8.5 3.8 7.6 94 0.4 SW 22 54 12 29 1016.9 1016.9 0.2
27/09:30am 8.5 4.0 7.0 90 0.7 WSW 20 54 11 29 1016.5 1016.5 0.0
27/09:11am 8.7 1.7 7.0 89 0.8 SW 33 61 18 33 1016.4 1016.4 0.0
27/09:00am 8.7 1.7 6.8 88 0.9 SW 33 63 18 34 1016.2 1016.2 4.0
27/08:30am 8.9 2.7 6.3 84 1.2 SW 28 65 15 35 1016.0 1016.0 4.0
27/08:00am 8.8 1.6 6.1 83 1.3 SW 33 69 18 37 1015.6 1015.5 4.0
27/07:36am 8.8 2.8 6.9 88 0.9 SW 28 63 15 34 1015.3 1015.2 4.0
27/07:30am 8.0 2.3 6.5 90 0.7 SW 26 59 14 32 1015.2 1015.1 4.0
27/07:15am 8.9 4.0 6.7 86 1.0 SW 22 46 12 25 1015.2 1015.1 4.0
27/07:00am 8.8 0.2 6.3 84 1.2 SW 41 69 22 37 1014.9 1014.8 4.0
27/06:30am 8.4 -0.3 6.0 85 1.1 SW 41 69 22 37 1014.6 1014.5 4.0
27/06:00am 7.9 1.1 7.0 94 0.4 SW 32 56 17 30 1014.5 1014.4 3.8
27/05:38am 8.4 2.3 6.7 89 0.8 SW 28 67 15 36 1014.3 1014.3 3.4
27/05:30am 8.8 3.5 6.9 88 0.9 SW 24 67 13 36 1014.0 1014.0 3.4
27/05:00am 8.8 2.7 8.2 96 0.3 SW 30 67 16 36 1013.8 1013.8 3.4
27/04:30am 7.6 -0.1 7.0 96 0.3 SW 37 85 20 46 1013.5 1013.5 3.2
27/04:26am 8.1 1.2 7.3 95 0.4 SW 33 85 18 46 1013.4 1013.4 3.2
27/04:00am 8.7 0.7 5.8 82 1.3 SW 37 67 20 36 1013.2 1013.2 3.0
27/03:38am 8.2 -0.9 5.8 85 1.1 SW 43 80 23 43 1013.0 1013.0 2.8
27/03:30am 9.0 1.5 4.6 74 2.0 SW 33 70 18 38 1013.1 1013.1 2.8
27/03:00am 8.6 -1.5 5.5 81 1.4 SW 48 72 26 39 1012.8 1012.8 2.8
27/02:30am 8.7 2.5 6.2 84 1.2 SW 28 67 15 36 1013.3 1013.3 2.6
27/02:00am 7.8 0.6 6.1 89 0.8 SW 33 69 18 37 1013.1 1013.1 2.6
27/01:30am 8.8 0.4 5.4 79 1.6 SW 39 70 21 38 1012.9 1012.9 2.6
27/01:00am 8.4 1.8 6.2 86 1.0 SW 30 56 16 30 1012.9 1012.9 2.6
27/12:30am 8.3 -0.3 6.3 87 0.9 SW 41 74 22 40 1012.9 1012.9 2.4
27/12:00am 8.5 1.4 5.3 80 1.5 SW 32 69 17 37 1012.7 1012.7 2.4
 
Date/Time
EST
Temp
°C
App
Temp
°C
Dew
Point
Rel
Hum
%
Delta-T
°C
Wind Press
QNH
hPa
Press
MSL
hPa
Rain
since 9 am
mm
Dir
 
Spd
km/h
Gust
km/h
Spd
kts
Gust
kts
26/11:53pm 8.3 2.6 6.6 89 0.8 WSW 26 69 14 37 1012.7 1012.7 2.4
26/11:50pm 8.2 2.9 6.8 91 0.7 WSW 24 59 13 32 1012.8 1012.8 2.4
26/11:30pm 8.4 0.0 5.7 83 1.2 SW 39 70 21 38 1012.8 1012.8 2.4
26/11:00pm 8.2 1.5 5.8 85 1.1 SW 30 65 16 35 1012.9 1012.9 2.2
26/10:59pm 8.4 2.1 5.9 84 1.2 SW 28 65 15 35 1012.8 1012.8 2.2
26/10:30pm 8.6 3.3 6.9 89 0.8 SW 24 50 13 27 1012.7 1012.7 2.2
26/10:00pm 8.7 2.4 5.8 82 1.3 SW 28 63 15 34 1012.8 1012.8 2.2
26/09:30pm 8.7 1.6 5.6 81 1.4 SW 32 65 17 35 1012.8 1012.8 2.2
26/09:00pm 7.8 1.0 6.7 93 0.5 SW 32 65 17 35 1012.6 1012.6 2.0
26/08:30pm 8.0 1.9 6.6 91 0.7 SW 28 85 15 46 1012.4 1012.4 1.8
26/08:00pm 8.2 0.0 6.7 90 0.7 SW 39 67 21 36 1012.3 1012.2 1.8
26/07:43pm 8.5 2.5 7.1 91 0.7 SW 28 61 15 33 1012.2 1012.1 1.6
26/07:30pm 8.2 1.4 7.0 92 0.6 SW 32 65 17 35 1012.5 1012.5 1.4
26/07:00pm 8.4 -0.1 6.9 90 0.7 SW 41 78 22 42 1011.8 1011.7 1.2
26/06:56pm 8.5 1.4 6.6 88 0.9 SW 33 78 18 42 1011.8 1011.7 1.2
26/06:30pm 8.8 2.8 7.1 89 0.8 SW 28 56 15 30 1011.7 1011.6 1.2
26/06:07pm 9.1 4.5 8.2 94 0.4 SW 22 65 12 35 1011.3 1011.2 1.2
26/06:00pm 8.7 5.1 8.3 97 0.2 WSW 17 50 9 27 1011.4 1011.3 1.2
26/05:30pm 8.8 3.9 8.4 97 0.2 WSW 24 54 13 29 1011.1 1011.0 1.0
26/05:28pm 8.8 3.9 8.4 97 0.2 WSW 24 54 13 29 1011.1 1011.0 1.0
26/05:00pm 8.9 5.1 7.7 92 0.6 SW 17 41 9 22 1010.9 1010.8 0.6
26/04:36pm 8.5 3.2 7.0 90 0.7 SW 24 52 13 28 1010.7 1010.6 0.6
26/04:30pm 9.4 4.2 7.3 87 1.0 WSW 24 52 13 28 1010.6 1010.5 0.6
26/04:00pm 9.9 6.5 6.1 77 1.8 SSW 13 33 7 18 1010.4 1010.3 0.4
26/03:30pm 10.6 7.8 5.2 69 2.5 ENE 9 26 5 14 1010.2 1010.1 0.0
26/03:00pm 10.7 7.2 5.5 70 2.4 WNW 13 35 7 19 1010.1 1010.0 0.0
26/02:30pm 10.5 7.7 5.3 70 2.4 NW 9 30 5 16 1010.3 1010.2 0.0
26/02:00pm 11.4 9.1 5.5 67 2.8 ENE 7 22 4 12 1010.2 1010.1 0.0
26/01:30pm 10.3 7.9 5.1 70 2.4 NNW 7 28 4 15 1010.4 1010.3 0.0
26/01:00pm 10.4 7.0 4.1 65 2.8 WNW 11 35 6 19 1010.5 1010.4 0.0
26/12:30pm 10.3 7.8 4.5 67 2.6 N 7 22 4 12 1010.7 1010.6 0.0
26/12:00pm 10.3 7.6 3.6 63 3.0 WNW 7 24 4 13 1011.0 1010.9 0.0
26/11:30am 10.0 7.0 4.0 66 2.7 NW 9 24 5 13 1011.5 1011.4 0.0
26/11:00am 9.4 6.8 4.0 69 2.4 NW 7 24 4 13 1011.7 1011.6 0.0
26/10:30am 9.2 6.5 3.8 69 2.4 W 7 24 4 13 1011.9 1011.8 0.0
26/10:00am 8.9 5.9 3.9 71 2.2 NW 9 30 5 16 1011.8 1011.7 0.0
26/09:30am 8.3 4.2 4.5 77 1.7 W 15 37 8 20 1011.9 1011.8 0.0
26/09:00am 8.5 3.9 3.9 73 2.0 W 17 46 9 25 1012.0 1011.9 0.8
26/08:30am 8.2 4.9 4.8 79 1.5 WSW 11 37 6 20 1012.2 1012.1 0.8
26/08:00am 8.4 3.2 3.7 72 2.1 WSW 20 48 11 26 1012.1 1012.0 0.8
26/07:30am 8.2 4.9 4.6 78 1.6 NW 11 35 6 19 1011.9 1011.8 0.8
26/07:00am 8.0 5.1 4.9 81 1.4 SSE 9 32 5 17 1011.5 1011.4 0.8
26/06:30am 7.6 3.4 5.6 87 0.9 WSW 17 37 9 20 1011.6 1011.5 0.8
26/06:00am 7.1 3.7 5.7 91 0.6 SW 13 33 7 18 1011.4 1011.3 0.8
26/05:30am 7.9 4.6 6.2 89 0.8 SSW 13 32 7 17 1011.5 1011.4 0.6
26/05:00am 7.2 2.7 6.1 93 0.5 SW 19 39 10 21 1011.7 1011.6 0.4
26/04:30am 7.8 4.1 6.3 90 0.7 SW 15 37 8 20 1011.7 1011.6 0.4
26/04:00am 7.6 3.5 6.2 91 0.6 SW 17 30 9 16 1011.8 1011.7 0.2
26/03:30am 7.3 2.7 5.8 90 0.7 SSW 19 33 10 18 1011.9 1011.8 0.2
26/03:00am 8.0 4.6 5.8 86 1.0 SW 13 28 7 15 1012.0 1011.9 0.2
26/02:30am 7.8 3.2 5.6 86 1.0 SW 19 35 10 19 1012.1 1012.0 0.2
26/02:00am 8.6 4.3 5.2 79 1.5 SW 17 33 9 18 1012.2 1012.1 0.2
26/01:30am 8.7 4.4 5.1 78 1.6 SSW 17 30 9 16 1012.3 1012.2 0.2
26/01:00am 8.8 4.4 4.6 75 1.9 SW 17 26 9 14 1012.4 1012.4 0.2
26/12:30am 8.9 4.8 4.5 74 2.0 SSW 15 26 8 14 1012.4 1012.4 0.2
26/12:00am 8.9 5.2 4.7 75 1.9 SSW 13 20 7 11 1012.4 1012.4 0.2
 
Date/Time
EST
Temp
°C
App
Temp
°C
Dew
Point
Rel
Hum
%
Delta-T
°C
Wind Press
QNH
hPa
Press
MSL
hPa
Rain
since 9 am
mm
Dir
 
Spd
km/h
Gust
km/h
Spd
kts
Gust
kts
25/11:30pm 8.9 4.9 5.1 77 1.7 SSW 15 20 8 11 1012.5 1012.5 0.2
25/11:00pm 8.9 5.3 5.1 77 1.7 S 13 22 7 12 1012.7 1012.7 0.2
25/10:30pm 8.8 6.1 5.4 79 1.6 SSW 9 20 5 11 1012.8 1012.8 0.2
25/10:00pm 8.9 5.5 5.8 81 1.4 S 13 20 7 11 1012.9 1012.9 0.2
25/09:30pm 8.8 5.4 6.1 83 1.3 S 13 22 7 12 1013.0 1013.0 0.2
25/09:00pm 8.7 5.5 6.8 88 0.9 S 13 22 7 12 1013.0 1013.0 0.2
25/08:30pm 8.3 4.7 6.9 91 0.7 S 15 30 8 16 1012.9 1012.9 0.2
25/08:00pm 9.2 6.6 7.6 90 0.8 SSW 11 24 6 13 1012.7 1012.7 0.2
25/07:30pm 9.1 5.7 6.0 81 1.4 SSW 13 24 7 13 1012.7 1012.7 0.0
25/07:00pm 9.0 4.5 6.3 83 1.3 SSW 19 26 10 14 1012.6 1012.6 0.0
25/06:30pm 8.8 5.2 6.9 88 0.9 SSW 15 24 8 13 1012.4 1012.4 0.0
25/06:00pm 8.3 4.0 7.1 92 0.6 SSW 19 24 10 13 1012.0 1011.9 0.0
25/05:30pm 8.4 3.5 7.0 91 0.7 SSW 22 33 12 18 1011.6 1011.5 0.0
25/05:00pm 8.8 4.2 5.5 80 1.5 SSW 19 32 10 17 1011.4 1011.3 0.0
25/04:30pm 9.5 4.3 5.7 77 1.8 SSW 22 33 12 18 1011.2 1011.1 0.0
25/04:00pm 9.5 4.7 5.7 77 1.8 SSW 20 32 11 17 1011.0 1010.9 0.0
25/03:30pm 9.8 4.6 5.6 75 1.9 SSW 22 35 12 19 1010.7 1010.6 0.0
25/03:00pm 10.4 4.8 5.4 71 2.3 SSW 24 33 13 18 1010.5 1010.4 0.0
25/02:30pm 10.2 4.0 6.2 76 1.9 SSW 28 39 15 21 1010.2 1010.1 0.0
25/02:00pm 10.6 4.7 5.6 71 2.3 SSW 26 35 14 19 1009.9 1009.9 0.0
25/01:30pm 10.1 4.3 6.1 76 1.9 SSW 26 41 14 22 1009.7 1009.7 0.0
25/01:00pm 11.1 5.5 7.0 76 2.0 SW 26 39 14 21 1010.1 1010.0 0.0
25/12:30pm 10.5 4.2 5.5 71 2.3 SW 28 41 15 22 1009.9 1009.9 0.0
25/12:00pm 11.3 6.1 5.6 68 2.7 SSW 22 39 12 21 1010.1 1010.0 0.0
25/11:30am 10.6 6.1 6.0 73 2.2 SSW 19 32 10 17 1010.2 1010.1 0.0
25/11:00am 10.3 5.5 5.7 73 2.1 SSW 20 30 11 16 1010.2 1010.1 0.0
25/10:30am 10.1 5.3 5.7 74 2.0 SSW 20 32 11 17 1010.1 1010.0 0.0
25/10:00am 9.7 4.1 5.5 75 1.9 SSW 24 33 13 18 1009.8 1009.8 0.0
25/09:30am 9.6 3.4 6.1 79 1.6 SSW 28 39 15 21 1009.5 1009.5 0.0
25/09:00am 9.7 3.9 6.4 80 1.6 SSW 26 41 14 22 1009.2 1009.2 1.8
25/08:30am 9.8 3.8 7.2 84 1.2 SSW 28 41 15 22 1008.9 1008.9 1.8
25/08:00am 9.8 3.3 8.1 89 0.8 SSW 32 43 17 23 1008.6 1008.5 1.8
25/07:30am 10.0 4.3 8.3 89 0.8 SSW 28 41 15 22 1008.1 1008.0 1.8
25/07:00am 10.1 5.8 9.3 95 0.4 SSW 22 33 12 18 1007.5 1007.4 1.8
25/06:30am 10.0 5.8 9.9 99 0.1 SSW 22 35 12 19 1006.9 1006.8 1.8
25/06:00am 10.0 4.7 9.9 99 0.1 SSW 28 46 15 25 1006.5 1006.4 1.6
25/05:30am 10.5 5.6 9.9 96 0.3 SSW 26 44 14 24 1006.2 1006.1 1.6
25/05:00am 10.4 5.6 9.0 91 0.7 SSW 24 43 13 23 1005.9 1005.8 1.6
25/04:54am 10.5 5.3 8.9 90 0.8 SW 26 46 14 25 1005.9 1005.8 1.6
25/04:49am 10.9 6.5 9.0 88 1.0 SSW 22 46 12 25 1005.8 1005.7 1.6
25/04:30am 10.6 7.8 8.7 88 0.9 SW 13 32 7 17 1005.8 1005.7 1.6
25/04:00am 10.7 5.5 8.8 88 1.0 SSW 26 44 14 24 1005.2 1005.1 1.6
25/03:30am 10.2 5.2 9.6 96 0.3 SSW 26 43 14 23 1005.0 1004.9 1.6

Other Formats:

Comma delimited format used in spreadsheet applications
http://www.bom.gov.au/fwo/IDT60801/IDT60801.95986.axf

JavaScript Object Notation format (JSON) in row-major order
http://www.bom.gov.au/fwo/IDT60801/IDT60801.95986.json